POPACS 3

Last updated on Thu Sep 10 2026 00:03:42 GMT+0000 (Coordinated Universal Time)

1 39270U 13055F 26252.39201791 .00007902 00000+0 18558-3 0 9991 2 39270 81.0022 137.7760 0546456 172.9476 187.9840 14.57342578650816
UTC large
Height (km)
Speed (km/s)
/
Latitude / Longitude
Inclination (degrees)
Orbital Period (minutes)
Azimuth
Elevation
Range (km)
Doppler Factor

Next 0 passes for location: London (51.5072 / 0.1276)

No passes found over London.
POPACS 3